Weather History for Orangeburg, SC

Change the Weather History Date:

Tuesday, October 11, 2011

  Actual Average Record
Temperature  
Mean Temperature 65 °F 67 °F  
Max Temperature 68 °F 78 °F 90 °F (1958)
Min Temperature 62 °F 56 °F 37 °F (2000)
Degree Days  
Heating Degree Days 0 2  
Month to date heating degree days 23 13  
Since 1 July heating degree days 24 17  
Cooling Degree Days 0 3  
Month to date cooling degree days 15 52  
Year to date cooling degree days 2449 2046  
Growing Degree Days 16 (Base 50)    
Moisture  
Dew Point 63 °F    
Average Humidity 93    
Maximum Humidity 100    
Minimum Humidity 81    
Precipitation  
Precipitation 0.17 in 0.12 in 2.04 in (1990)
Month to date precipitation 0.50 1.56  
Year to date precipitation 32.74 38.66  
Sea Level Pressure  
Sea Level Pressure 29.90 in    
Wind  
Wind Speed 7 mph (NE)    
Max Wind Speed 13 mph    
Max Gust Speed 17 mph    
Visibility 6 miles    
Events Rain    
T = Trace of Precipitation, MM = Missing Value Source: NWS Daily Summary

Daily Weather History Graph

Daily Weather History Graph

Search for Another Location

Airport:

Trip Planner

Search our weather history database for the weather conditions in past years. The results will help you decide how hot, cold, wet, or windy it might be!

Date:

Astronomy

Oct. 11, 2011 Rise Set
Actual Time 7:24 AM EDT 6:55 PM EDT
Civil Twilight 6:59 AM EDT 7:20 PM EDT
Nautical Twilight 6:31 AM EDT 7:48 PM EDT
Astronomical Twilight 6:02 AM EDT 8:17 PM EDT
Moon 6:29 PM EDT (10/11) 6:59 AM EDT (10/11)
Length of Visible Light 12h 20m
Length of Day
11h 30m
Full, 100% of the Moon is Illuminated
Oct 11
Full
Oct 11
Full
Oct 19
Last Quarter
Oct 26
New
Nov 2
First Quarter

Hourly Weather History & Observations

Time (EDT) Temp. Dew Point Humidity Pressure Visibility Wind Dir Wind Speed Gust Speed Precip Events Conditions
12:30 AM 68.0 °F 64.4 °F 88% 29.95 in 10.0 mi NE 11.5 mph - N/A   Unknown
12:53 AM 68.0 °F 66.0 °F 93% 29.94 in 10.0 mi ENE 9.2 mph 17.3 mph N/A   Unknown
1:26 AM 69.8 °F 64.4 °F 83% 29.94 in 10.0 mi NE 10.4 mph 18.4 mph N/A   Overcast
1:39 AM 68.0 °F 64.4 °F 88% 29.94 in 10.0 mi ENE 8.1 mph - N/A   Overcast
2:50 AM 68.0 °F 64.4 °F 88% 29.92 in 10.0 mi ENE 11.5 mph 18.4 mph N/A   Overcast
2:53 AM 68.0 °F 63.0 °F 84% 29.91 in 10.0 mi ENE 11.5 mph 19.6 mph N/A   Overcast
3:53 AM 66.9 °F 63.0 °F 87% 29.91 in 9.0 mi North - - N/A   Overcast
4:34 AM 64.4 °F 62.6 °F 94% 29.90 in 10.0 mi NE 11.5 mph - N/A   Overcast
4:53 AM 66.0 °F 62.1 °F 87% 29.89 in 10.0 mi NE 11.5 mph 18.4 mph N/A   Overcast
5:53 AM 66.0 °F 61.0 °F 84% 29.91 in 10.0 mi ENE 6.9 mph 18.4 mph N/A   Overcast
6:35 AM 64.4 °F 60.8 °F 88% 29.92 in 10.0 mi NE 13.8 mph 20.7 mph N/A   Overcast
6:53 AM 64.9 °F 61.0 °F 87% 29.92 in 10.0 mi NE 10.4 mph 20.7 mph N/A   Overcast
7:34 AM 62.6 °F 60.8 °F 94% 29.93 in 2.5 mi NE 11.5 mph 17.3 mph 0.08 in Rain Heavy Rain
7:42 AM 62.6 °F 60.8 °F 94% 29.93 in 3.0 mi NE 9.2 mph - 0.12 in Rain Light Rain
7:53 AM 63.0 °F 61.0 °F 93% 29.93 in 10.0 mi NE 8.1 mph 19.6 mph 0.12 in   Overcast
8:23 AM 62.6 °F 60.8 °F 94% 29.93 in 10.0 mi NE 9.2 mph - N/A   Overcast
8:32 AM 62.6 °F 60.8 °F 94% 29.93 in 10.0 mi NE 9.2 mph 19.6 mph N/A   Overcast
8:39 AM 62.6 °F 60.8 °F 94% 29.94 in 10.0 mi NE 10.4 mph - N/A   Overcast
8:53 AM 62.1 °F 60.1 °F 93% 29.94 in 10.0 mi NE 8.1 mph - N/A   Overcast
10:42 AM 64.4 °F 60.8 °F 88% 29.93 in 10.0 mi NE 10.4 mph 19.6 mph 0.01 in   Overcast
10:53 AM 63.0 °F 61.0 °F 93% 29.93 in 4.0 mi NE 9.2 mph - 0.01 in Rain Light Rain
11:42 AM 62.6 °F 60.8 °F 94% 29.93 in 2.0 mi NE 9.2 mph - 0.03 in Rain Light Rain
11:50 AM 62.6 °F 60.8 °F 94% 29.93 in 2.0 mi NE 8.1 mph - 0.03 in Rain Light Rain
11:53 AM 64.0 °F 61.0 °F 90% 29.93 in 2.0 mi NE 9.2 mph - 0.04 in Rain Light Rain
12:04 PM 64.4 °F 62.6 °F 94% 29.93 in 5.0 mi NNE 9.2 mph - 0.00 in Rain Light Rain
12:53 PM 64.0 °F 62.1 °F 93% 29.91 in 10.0 mi NNE 10.4 mph - 0.00 in   Overcast
2:36 PM 64.4 °F 62.6 °F 94% 29.88 in 8.0 mi NE 9.2 mph - N/A   Overcast
2:53 PM 64.9 °F 63.0 °F 93% 29.88 in 9.0 mi NE 10.4 mph - N/A   Overcast
4:10 PM 64.4 °F 62.6 °F 94% 29.87 in 2.5 mi NE 8.1 mph - N/A   Overcast
4:24 PM 64.4 °F 62.6 °F 94% 29.87 in 3.0 mi NE 6.9 mph - N/A   Overcast
4:41 PM 64.4 °F 62.6 °F 94% 29.87 in 2.5 mi NE 8.1 mph - N/A   Overcast
4:53 PM 64.9 °F 63.0 °F 93% 29.86 in 2.5 mi NE 5.8 mph - N/A   Overcast
5:02 PM 64.4 °F 62.6 °F 94% 29.86 in 3.0 mi NE 6.9 mph - N/A   Overcast
5:19 PM 64.4 °F 62.6 °F 94% 29.86 in 2.5 mi NNE 6.9 mph - N/A   Overcast
6:41 PM 64.4 °F 64.4 °F 100% 29.86 in 1.8 mi NNE 5.8 mph - N/A   Overcast
6:49 PM 64.4 °F 64.4 °F 100% 29.86 in 2.0 mi NNE 5.8 mph - N/A   Overcast
6:53 PM 64.9 °F 64.0 °F 97% 29.86 in 2.0 mi NE 4.6 mph - N/A   Overcast
7:06 PM 64.4 °F 62.6 °F 94% 29.86 in 3.0 mi NNE 5.8 mph - N/A   Overcast
7:34 PM 64.4 °F 62.6 °F 94% 29.86 in 2.5 mi NNE 4.6 mph - N/A   Overcast
7:53 PM 64.9 °F 64.0 °F 97% 29.86 in 2.0 mi NNE 4.6 mph - N/A   Overcast
8:53 PM 64.9 °F 64.0 °F 97% 29.87 in 2.0 mi NNE 6.9 mph - N/A   Overcast
9:53 PM 64.9 °F 64.0 °F 97% 29.88 in 3.0 mi NE 3.5 mph - N/A   Overcast
10:29 PM 64.4 °F 64.4 °F 100% 29.88 in 2.5 mi Calm Calm - 0.00 in   Overcast
10:53 PM 64.9 °F 64.0 °F 97% 29.89 in 1.8 mi Calm Calm - 0.00 in   Overcast
11:02 PM 64.4 °F 64.4 °F 100% 29.89 in 1.2 mi Calm Calm - N/A   Overcast
11:16 PM 64.4 °F 64.4 °F 100% 29.88 in 0.8 mi Calm Calm - N/A   Mist
11:53 PM 64.9 °F 64.0 °F 97% 29.86 in 0.8 mi NE 4.6 mph - N/A   Mist